{"data":{"norad_id":61903,"epoch":"2026-09-22T23:16:44.036832Z","epoch_age_seconds":88770,"freshness":"FRESH","line1":"1 61903U 24205K   26265.96995413  .00010894  00000+0  34305-3 0  9998","line2":"2 61903  97.4036 342.9351 0009982  56.1310 304.0881 15.33052329103619","mean_motion":15.33052329,"eccentricity":0.0009982,"inclination_deg":97.4036,"raan_deg":342.9351,"arg_perigee_deg":56.131,"mean_anomaly_deg":304.0881,"bstar":0.00034305,"rev_number":10361,"period_min":93.930257484381,"perigee_km":459.87920846387,"apogee_km":473.54426448137,"semimajor_km":6844.8487364726,"source":"CELESTRAK","updated_at":"2026-09-23T09:00:21.099390Z"}}